Location: Newark
(35.6799°N, 139.7636°E)
Time: 09:50:52
(UTC+00:00)

A-11 Canister half - All Passes

Search period start: 09 December 2019 00:00
Search period end: 19 December 2019 00:00
Orbit: 1515 x 1685 km, 47.2° (Epoch: 08 December)

Date Brightness Start Highest point End Pass type
(mag) Time Alt. Az. Time Alt. Az. Time Alt. Az.
09 Dec - 00:32:48 10° S 00:39:59 25° SE 00:47:21 10° ENE daylight
09 Dec - 02:34:20 10° SW 02:43:54 84° SE 02:53:53 10° ENE daylight
09 Dec - 04:40:21 10° W 04:49:43 49° NNW 04:59:24 10° ENE daylight
09 Dec - 06:47:13 10° WNW 06:56:43 45° N 07:06:22 10° E daylight
09 Dec - 08:52:45 10° NW 09:02:55 82° NNE 09:13:08 10° ESE visible
09 Dec - 10:58:34 10° WNW 11:07:22 35° SW 11:16:09 10° S visible
10 Dec - 00:10:19 10° S 00:17:10 23° SE 00:24:09 10° ENE daylight
10 Dec - 02:11:27 10° SW 02:20:59 80° SE 02:30:55 10° ENE daylight
10 Dec - 04:17:19 10° W 04:26:41 50° NNW 04:36:23 10° ENE daylight
10 Dec - 06:24:13 10° WNW 06:33:39 45° N 06:43:15 10° E daylight
10 Dec - 08:29:48 10° NW 08:39:56 79° NNE 08:50:09 10° ESE visible
10 Dec - 10:35:30 10° WNW 10:44:29 37° SW 10:53:28 10° SSE visible
10 Dec - 23:47:54 10° SSE 23:54:20 21° SE 00:00:54 10° E daylight
11 Dec - 01:48:36 10° SW 01:58:04 76° SE 02:07:56 10° ENE daylight
11 Dec - 03:54:17 10° W 04:03:39 51° NNW 04:13:22 10° ENE daylight
11 Dec - 06:01:14 10° WNW 06:10:35 44° N 06:20:10 10° ENE daylight
11 Dec - 08:06:51 10° NW 08:16:58 76° NNE 08:27:10 10° ESE visible
11 Dec - 10:12:27 10° WNW 10:21:36 40° SW 10:30:45 10° SSE visible
11 Dec - 23:25:32 10° SSE 23:31:31 19° ESE 23:37:37 10° E daylight
12 Dec - 01:25:46 10° SW 01:35:09 72° SE 01:44:56 10° ENE daylight
12 Dec - 03:31:16 10° W 03:40:38 52° NNW 03:50:22 10° ENE daylight
12 Dec - 05:38:13 10° WNW 05:47:32 44° N 05:57:04 10° ENE daylight
12 Dec - 07:43:54 10° NW 07:53:58 72° NNE 08:04:09 10° ESE visible
12 Dec - 09:49:25 10° WNW 09:58:43 43° SW 10:08:01 10° SSE visible
12 Dec - 23:03:14 10° SSE 23:08:42 17° ESE 23:14:15 10° E daylight
13 Dec - 01:02:56 10° SW 01:12:15 68° SE 01:21:58 10° ENE daylight
13 Dec - 03:08:15 10° W 03:17:37 54° NNW 03:27:22 10° ENE daylight
13 Dec - 05:15:13 10° WNW 05:24:28 43° N 05:33:59 10° ENE daylight
13 Dec - 07:20:58 10° NW 07:30:59 70° NNE 07:41:09 10° ESE daylight
13 Dec - 09:26:23 10° WNW 09:35:49 46° SW 09:45:17 10° SSE visible
13 Dec - 22:41:02 10° SSE 22:45:53 15° ESE 22:50:48 10° E daylight
14 Dec - 00:40:07 10° SW 00:49:22 64° SE 00:58:58 10° ENE daylight
14 Dec - 02:45:15 10° W 02:54:36 56° NNW 03:04:21 10° NE daylight
14 Dec - 04:52:12 10° WNW 05:01:25 43° N 05:10:53 10° ENE daylight
14 Dec - 06:58:01 10° NW 07:07:59 67° NNE 07:18:06 10° ESE daylight
14 Dec - 09:03:23 10° WNW 09:12:55 49° SW 09:22:31 10° SSE visible
14 Dec - 22:18:58 10° SSE 22:23:05 14° ESE 22:27:13 10° E daylight
15 Dec - 00:17:19 10° SW 00:26:29 61° SE 00:35:59 10° ENE daylight
15 Dec - 02:22:15 10° W 02:31:37 57° NNW 02:41:21 10° NE daylight
15 Dec - 04:29:12 10° WNW 04:38:21 42° N 04:47:47 10° ENE daylight
15 Dec - 06:35:05 10° NW 06:44:59 64° NNE 06:55:04 10° ESE daylight
15 Dec - 08:40:23 10° WNW 08:50:00 52° SW 08:59:43 10° SSE visible
15 Dec - 10:51:03 10° WSW 10:53:28 11° WSW 10:55:52 10° SW visible
15 Dec - 21:57:10 10° SE 22:00:17 12° ESE 22:03:25 10° E daylight
15 Dec - 23:54:32 10° SSW 00:03:36 57° SE 00:13:00 10° ENE daylight
16 Dec - 01:59:15 10° WSW 02:08:37 59° NNW 02:18:22 10° NE daylight
16 Dec - 04:06:11 10° WNW 04:15:18 42° N 04:24:43 10° ENE daylight
16 Dec - 06:12:08 10° NW 06:21:59 62° NNE 06:32:02 10° ESE daylight
16 Dec - 08:17:23 10° WNW 08:27:06 56° SW 08:36:54 10° SSE visible
16 Dec - 10:26:54 10° W 10:30:37 13° WSW 10:34:21 10° SW visible
16 Dec - 21:36:01 10° SE 21:37:29 10° ESE 21:38:57 10° ESE daylight
16 Dec - 23:31:46 10° SSW 23:40:43 53° SE 23:49:59 10° ENE daylight
17 Dec - 01:36:17 10° WSW 01:45:38 62° NNW 01:55:24 10° NE daylight
17 Dec - 03:43:10 10° WNW 03:52:15 42° N 04:01:38 10° ENE daylight
17 Dec - 05:49:12 10° NW 05:58:58 60° NNE 06:08:58 10° ESE daylight
17 Dec - 07:54:25 10° WNW 08:04:11 59° SW 08:14:04 10° SSE visible
17 Dec - 10:03:09 10° W 10:07:47 14° WSW 10:12:26 10° SSW visible
17 Dec - 23:09:01 10° SSW 23:17:52 50° SE 23:26:59 10° ENE daylight
18 Dec - 01:13:17 10° WSW 01:22:39 64° NNW 01:32:25 10° NE daylight
18 Dec - 03:20:09 10° WNW 03:29:12 42° N 03:38:33 10° ENE daylight
18 Dec - 05:26:16 10° NW 05:35:58 57° NNE 05:45:55 10° E daylight
18 Dec - 07:31:27 10° WNW 07:41:16 63° SW 07:51:14 10° SE daylight
18 Dec - 09:39:36 10° W 09:44:56 16° WSW 09:50:18 10° SSW visible
18 Dec - 22:46:18 10° SSW 22:55:00 46° SE 23:03:58 10° ENE daylight
